Flag for U.S.A. Weather past 2 weeks in Citrus Heights, California, U.S.A.

Now
63 °F

Partly sunny.


Feels Like: 63 °F
Forecast: 40 / 64 °F
Wind: 5 mph from South

Location: Mather Field

Current Time: Mar 2, 2015 at 4:18:05 PM

Latest Report: Mar 2, 2015 at 2:46 PM


Visibility: 10 mi

Pressure: 29.82 "Hg

Humidity: 49%

Dew point: 43 °F

Location of Citrus HeightsLocation

Historic Weather in Citrus Heights — Graph

°F

Citrus Heights temperature yesterday

Maximum temperature yesterday: 64 °F (at 2:50 PM)
Minimum temperature yesterday: 36 °F (at 5:45 AM)
Average temperature yesterday: 52 °F

Past Weeks' High & Low Weather Summary

 TemperatureHumidityPressure
High72 °F (Feb 15, 2:46 PM)100% (Feb 16, 4:50 AM)30.36 "Hg (Feb 16, 4:50 AM)
Low30 °F (Feb 24, 4:52 AM)19% (Feb 22, 4:46 PM)29.66 "Hg (Feb 27, 4:50 PM)
Average52 °F75%30.01 "Hg
* Reported Feb 15 2:46 PM — Mar 2 2:46 PM, Citrus Heights, Weather by CustomWeather, © 2015

Note: Actual official high and low records may vary slightly from our data, if they occured in-between our weather recording intervals... More about our weather records

Advertising

Citrus Heights weather history for previous 24 hours

 ConditionsComfort  
Time TempWeatherWind HumidityBarometerVisibility
2:46 PM
Mon, Mar 2
63 °FPartly sunny.5 mph49%29.82 "Hg10 mi
1:46 PM61 °FPartly sunny.8 mph52%29.81 "Hg10 mi
12:45 PM59 °FPartly sunny.9 mph59%29.83 "Hg10 mi
11:54 AM59 °FPartly sunny.10 mph59%29.83 "Hg10 mi
10:46 AM57 °FBroken clouds.12 mph63%29.83 "Hg10 mi
9:46 AM54 °FPartly sunny.13 mph77%29.83 "Hg10 mi
8:45 AM50 °FPartly sunny.14 mph82%29.83 "Hg10 mi
7:45 AM46 °FPartly sunny.7 mph93%29.81 "Hg10 mi
6:45 AM46 °FBroken clouds.6 mph87%29.81 "Hg10 mi
5:45 AM43 °FPassing clouds.7 mph93%29.81 "Hg10 mi
4:55 AM45 °FPassing clouds.8 mph87%29.81 "Hg10 mi
8:46 PM
Sun, Mar 1
46 °FClear.9 mph82%29.90 "Hg10 mi
7:46 PM52 °FClear.7 mph58%29.89 "Hg10 mi
6:46 PM57 °FClear.No wind44%29.89 "Hg10 mi
5:46 PM63 °FSunny.6 mph37%29.89 "Hg10 mi
4:46 PM64 °FSunny.6 mph37%29.88 "Hg10 mi
Weather by CustomWeather, © 2015

See weather overviewHow to use our weather pages